Showing default

BADR 7, 41029

Orbit data source: Space-Track

BADR 7, 41029 is a payload satellite owned by Arabsat (SA) in GEO that was launched on Tue, 10 Nov 2015 UTC via an ARIANE 5ECA launch vehicle from the French Guiana (FRGUI). Payload-class satellites include a variety of spacecraft equipped with specific instruments for various scientific and technological missions. These include communications satellites like Starlink; space stations such as the ISS; scientific satellites like the Hubble; Earth observation satellites from companies like Planet Labs, Umbra, and HawkEye 360; GPS; miniature CubeSats for education and research; and military/defense satellites.

Not visible in the next 10 days
Identifier
41029, 2015-065B
Orbit
GEO
Last TLE update
11 hours ago
Origin
Manufacturer
ADS/Bremen
Mission
Operational Commercial Communications
Bus & Motor
EUROSTAR 3000LS, R-4D?
Mass
5,799 kg wet, ~3,000 kg dry
Launch date (UTC)
2015-11-10 (10 years ago)
Launch vehicle
ARIANE 5ECA
Launch site
French Guiana (FRGUI)
Object type
Payload
Rocket body
Debris
Shape & HBR
Box + 2 Pan, 30.8 m
Radar Cross Section
30.523 m², Large (>1 m²)

Expand to show TLE details & history

TLE from 11 hours ago
0 BADR 7
1 41029U 15065B   25181.93169793  .00000146  00000-0  00000-0 0  9998
2 41029   0.0440 210.2492 0004134 354.7729  75.6208  1.00275494 35249
Epoch: 2025-06-30T22:21Z
TLE epoch observation values (Epoch: 2025-06-30T22:21:38.701Z)
Latitude
0.01487°
Longitude
26.05685°
Altitude
35,780.71 km
Speed
3.075 km/s
True Right ascension
18h 42m 48s
True Declination
0° 00' 53"
Sunlit
Object was in daylight at epoch
Visualization orbit readout
Latitude
-0.0107°
Longitude
-165.92549°
Altitude
35,792.708 km
Speed
3.074 km/s
Apparent Right ascension
06h 13m 28s
Apparent Declination
-5° 07' 04"
Sunlit
Object is in daylight
Visualization observer readout
Local Sidereal Time
21:10:30
Azimuth
60.748° ENE
Elevation
-37.184°
Doppler factor
1
Orbital elements
Apogee altitude
35,804.057 km
Perigee altitude
35,769.195 km
Semi-major axis
42,164.763 km
Eccentricity
0.00041
Inclination
0.044°
RAAN
210.2492°
Arg. of periapsis
354.7729°
True anomaly
Unknown
Mean anomaly
75.6208°
Eccentric anomaly
Unknown
Mean motion
0.25068 °/min
Orbital period
1,436.1 mins
BSTAR
0
Loading historical data...
41029 neighbors
Loading maneuver chart data...
Loading SW <> Apogee altitude chart data...
Loading historical data...
Loading historical data...
Loading historical data...
Loading historical data...
Loading historical data...
Loading historical data...
Loading historical data...
Other satellites on launch #65 in the year 2015 (2015-11-10 UTC)

BADR 7 Visibility

Observer location: undefined°, undefined°

BADR 7 is likely not visible in the next few days
Span
Click to sort rows by Start time (UTC) header in descending order
Start Az.
Max El. time (UTC)
Max El. Az.
Max El.
End time (UTC)
End Az.
|